TIMESTAMP,CO2_1_1_1,H2O_1_1_1,TAU_1_1_1,TAU_SSITC_TEST_1_1_1,H_1_1_1,H_SSITC_TEST_1_1_1,LE_1_1_1,LE_SSITC_TEST_1_1_1,FC_1_1_1,FC_SSITC_TEST_1_1_1,WD_0_0_1,WS_0_0_1,WS_MAX_0_0_1,U_SIGMA_0_0_1,V_SIGMA_0_0_1,W_SIGMA_0_0_1,USTAR_0_0_1,MO_LENGTH_0_0_1,ZL_0_0_1,FETCH_MAX_0_0_1,FETCH_70_0_0_1,FETCH_80_0_0_1,FETCH_90_0_0_1,PA_0_0_1,RH_0_0_1,TA_0_0_1,VPD_0_0_1,T_SONIC_0_0_1,T_SONIC_SIGMA_0_0_1
[yyyymmddHHMMSS],[mmolCO2 mol-1],[mmolH2O mol-1],[kg m-1 s-2],[#],[W m-2],[#],[W m-2],[#],[umolCO2 m-2 s-1],[#],[Decimal degrees],[m s-1],[m s-1],[m s-1],[m s-1],[m s-1],[m s-1],[m],[#],[m],[m],[m],[m],[kPa],[%],[deg C],[hPa],[deg C],[deg C]
20220524003000,416.48550767688943,4.9653958842475978,1.5175017869166708E-002,0,-3.4249147536144289,1,8.9635584498325684,1,-0.25766563573667239,1,235.16575760847215,0.51091746482126321,2.2485121685847806,0.33525772015506383,0.31848625460345820,0.17476822523224114,0.11496345874586987,37.164879576027687,0.51123534414074878,30.131565995286174,234.00000000000000,408.00000000000000,1008.0000000000000,94.611861738715277,30.688965517241378,13.384827586206882,10.612949049595128,12.981192165798575,7.9513618008305642E-002
20220524010000,416.23038138819055,4.9607732274031280,5.5932987411400625E-003,1,-1.4673819166580109,1,2.7691206951917411,1,-0.25301637032005708,1,227.65758131688332,0.79360790101247236,1.6541932558837396,0.30850833063430033,0.15753273087315547,9.3487899045916090E-002,6.9796654160338770E-002,19.412990136030430,0.97872609355197049,187.26561176063049,1704.0000000000000,3112.0000000000000,8330.0000000000000,94.620634904513892,30.594999999999999,13.418999999999983,10.651039925799333,13.005219657897953,4.7284331053131803E-002
20220524013000,416.45785370298267,4.9601081661164867,1.8013796805448972E-003,2,-0.19504345328207956,1,9.6779006719070249E-002,1,-1.5848848175085483E-002,1,224.54535808758055,0.86318679375000695,1.4785222168140548,0.30878760670021388,9.9443415327363324E-002,5.1794908778437662E-002,3.9602324080101801E-002,26.677950909382211,0.71219862666881217,528.94271262976486,5835.0000000000000,-9999.,-9999.,94.617943531901034,30.824333333333332,13.302000000000021,10.535151663502266,12.951979210747595,4.4474584210033682E-002
20220524020000,416.41814394240691,4.9869586749524455,1.4032810484840575E-002,1,5.7503024617955294,1,0.41448018691422650,2,0.11956040307911586,2,165.98396365713421,0.66407069777221606,1.3313783293831427,0.22710983266161958,0.27670147002084633,5.8937353120297603E-002,0.11047231730498906,-19.643843283540651,-0.96722416920928500,48.516618325509526,157.00000000000000,217.00000000000000,360.00000000000000,94.628832172332537,31.571666666666665,13.019666666666694,10.230908074439547,12.742584739939844,0.13027649937925503
20220524023000,417.30122652679114,5.6305089243769055,1.2898459253022725E-002,1,12.429207994018233,1,-26.834795597048490,2,-1.4141218630237040,2,132.17981210294403,1.3880488951504986,2.2202303608722804,0.48787911422560598,0.13971295703992345,9.3085012316608817E-002,0.10579576515626429,-7.9836597993475973,-2.3798609256312035,99.699596675585852,293.00000000000000,397.00000000000000,633.00000000000000,94.642582618055556,37.233333333333334,12.357333333333315,8.9856161057699708,12.229528611924991,0.42752127679095836
20220524030000,417.27008581255501,5.5677787116251176,1.5092224257912356E-002,1,5.3961396686218146,2,-15.273194403279179,2,-0.72131036572885165,2,150.60863837444347,1.4056839048248293,2.6401229955496648,0.39203003537914577,0.35455680239497045,0.11944926933485851,0.11440047936113619,-23.252591253479650,-0.81711323236530597,136.68583987718600,421.00000000000000,578.00000000000000,941.00000000000000,94.653618310980903,37.199333333333335,12.202666666666687,8.8994826979461319,12.086695217556439,0.37362061965059573
20220524033000,421.16117310515386,5.8019138071149410,0.12880002891115980,0,40.469598729850603,2,-69.800661683888308,1,-5.9504407130980521,2,157.07526438133175,1.7983903542088613,7.8946998733951066,1.2049598328911157,0.95659358529601279,0.45799466927471871,0.33371182200537436,-76.965213803377907,-0.24686477255216971,97.199456157351690,177.71160603218917,212.67540424303274,266.24436913073095,94.662343731119790,40.966666666666669,11.367000000000019,7.9164720565563425,10.971987302144498,1.5233169520665271
20220524040000,425.22046094874224,6.8240125169247126,0.23442821522069329,0,-45.177030396621269,0,12.266403246005334,0,5.6114927839216264,0,172.16784747230588,2.3960192202888200,6.5994266075724921,0.93239990269377093,0.81646145768994849,0.63954792226792356,0.44853008023716168,167.46048100169540,0.11345960483540973,94.273511729082557,172.36204643520045,206.27334770202273,258.22975403705203,94.690567044775804,55.641333333333336,9.2180000000000177,5.1528080725545875,9.0756545011620915,0.21517884254161093
20220524043000,423.08989758324896,6.8259031062026754,0.18481597840318470,0,-51.179445625168078,0,18.247251318341355,0,7.7399331844641504,0,171.94425036095637,2.2203039751902036,5.4472891946737860,0.82286061039224312,0.74819713222134787,0.58002880330256135,0.39800600383440521,103.27903366681721,0.18396763917539014,92.641792631825723,169.37874351530061,202.70309605310007,253.76022263407359,94.686386230902784,57.020666666666664,8.8586666666666360,4.8729451644644888,8.7316467369927295,0.22515063555323681
20220524050000,421.25866049053553,6.7626316927216923,0.19194776343969119,0,-46.311260853132353,0,10.359444902425244,0,4.5066742206852552,0,158.23467363557702,2.2953036818721206,6.3457916596056698,0.86003349966255072,0.79590909061333359,0.57358580104183465,0.40537572430473118,120.58617568053498,0.15756366675344344,94.855469149365007,173.42605020527628,207.54668846444883,259.82382557149782,94.680046651475706,57.808666666666667,8.5173333333333403,4.6743472845598459,8.3676093690659741,0.25921116541525324
20220524053000,420.65137276218985,6.9068492407706739,0.29186856738571187,0,-60.556884067798848,0,9.2448422933037708,0,5.7517609749781489,0,166.64036280910710,2.4044512139724539,7.7354045727850016,1.1100584239217908,0.92214856770215614,0.69847549172143397,0.49948687614532755,172.50759563997133,0.11014007777172656,95.753184759243780,175.06736065184361,209.51091787245264,262.28280770637787,94.674525913845486,60.940333333333335,8.0503333333333558,4.1923091616684429,7.9074274648030496,0.21390982924247273
20220524060000,421.42991083954945,7.0587359094596938,0.15266460184436939,0,-52.985111698238285,0,9.7996548741881231,1,5.0553336357468073,0,171.21863715748893,2.2006138085161209,5.8069936830489093,0.87200648982285234,0.80234944414225551,0.63122574177699498,0.36086933832635171,74.357610364062495,0.25552192851510491,80.054753639435262,146.36562180702330,175.16226700158910,219.28237277524553,94.681653005208346,64.783333333333331,7.4736666666666451,3.6340776355171340,7.3361530329387392,0.22283704488365985
20220524063000,421.80100812309792,7.2252580653799701,0.20300508303263978,0,-47.080805943486702,0,6.1662438214067423,1,4.4649726678854265,0,187.30096247700027,2.1816788898043251,6.0281293655940571,0.84870139711613413,0.86773783167368035,0.63915243382992448,0.41587283704880429,128.08120849518909,0.14834338481990250,88.785038284654277,162.32736651996106,194.26439873649247,243.19597496593269,94.684420804253477,67.981999999999999,7.1106666666666456,3.2229133746403011,7.0160167143080230,0.16426143728946957
20220524070000,421.88695420716488,7.2551694799424435,0.14452418445405085,0,-28.604069943038798,0,2.3244842414955538,1,3.3472142638140285,0,194.83702509040603,2.2531728215195246,5.5102350949087633,0.83280144171700210,0.73943261770643398,0.55070697512681732,0.35078478250918405,126.50868379682882,0.15018731860742252,87.287294771074642,159.58901369634393,190.98728979169269,239.09342344293739,94.677585181206595,69.200000000000003,6.9110000000000014,3.0581292431848182,6.7848534664578892,0.21867354346456985
20220524073000,423.19273118474246,7.3733280713968643,0.10037126551762968,0,-25.829508499245765,0,-3.5128436338270843,1,2.2078923265036852,1,189.78323042924970,1.8367208173975322,4.4251372039600607,0.59699133643884938,0.53616958515703261,0.39177240926690809,0.29207543419110477,80.874452041000268,0.23493203997682388,98.997413212376046,180.99884495776533,216.60938966441100,271.16925205460416,94.681102931651793,72.751000000000005,6.4189999999999827,2.6155013420646767,6.3198005579191658,0.24867880131066844
20220524080000,425.22305515767158,7.4184566825263207,7.9011328801734684E-002,1,-32.073285367417867,0,-1.8447817827185429,0,3.1172067905660805,0,186.27310175664914,1.7571147428687117,3.5395220709155852,0.50722995237721635,0.50551697057147005,0.36703949950494619,0.25881893057101207,45.317718769572394,0.41926205722334681,94.685066233520359,173.11449932788975,207.17384163542150,259.35706558516989,94.675836811197925,76.892333333333340,5.7056666666666729,2.1112625829801197,5.6117530059814271,0.28475381464270599
20220524083000,425.60423272496524,7.4420370693238853,9.0153732465497405E-002,0,-38.319991017769759,0,-2.2864611191112458,0,3.4846854691103681,0,205.83789466402052,2.0386583791907587,4.7483701750906819,0.67218888599710525,0.62750286179959636,0.39185454760902522,0.27627344271069915,46.134956029353603,0.41183522507122694,94.673034700427152,173.09250184813467,207.14751627038939,259.32410935203114,94.680607683159721,79.195999999999998,5.3269999999999982,1.8514540711861684,5.3035245073106694,0.26510770779026471
20220524090000,425.83036927780512,7.4487239906507900,6.8462629970841349E-002,0,-30.489853752139854,0,-2.6211715028835156,0,2.3328244660096789,0,210.06786229307085,2.2138990601045294,4.4101977490749489,0.57381308316087942,0.50929515307076523,0.36821963931861534,0.24061860363753829,38.314136699575663,0.49590051183928746,89.090768035378019,162.88633801178690,194.93334484889698,244.03341611862970,94.708028234592021,80.592333333333329,5.0930000000000177,1.6992792367071843,5.0633088302612350,0.26865065651639097
20220524093000,426.09626996803780,7.5502452479387889,8.3110558693145667E-002,0,-38.891358431183036,0,-5.4625149019485164,0,2.6984187618731550,0,209.56215035672713,2.0926112665771015,4.4481991900643258,0.58805712464782378,0.52715293825384824,0.39181039243272620,0.26511490875175653,40.180596319427970,0.47286505777449578,91.609699745637982,167.49174855020635,200.44484502512108,250.93316032085932,94.718030279135078,81.566666666666663,5.1163333333333298,1.6165954716622934,5.0873726038215636,0.25946495134052400
20220524100000,426.49858501833666,7.5784784886466063,8.6697153095307705E-002,0,-28.537063088393705,0,-2.4661959151103412,0,3.1474350026072542,0,208.29315113498899,1.9376688814038494,3.8920285779394423,0.58561851459314340,0.45226516656381360,0.35829544093357102,0.27076488872346710,58.339063766377286,0.32568229199026538,100.07733954493710,182.97329471852530,218.97230174653532,274.12733758807593,94.724942137586808,81.896666666666661,5.1129999999999995,1.5872859520150064,5.0784228727552545,0.24293710584095271
20220524103000,426.67521699032051,7.5576939654526090,5.7319035243787661E-002,0,-32.049306972042416,0,-2.8133004771513921,0,3.5359353314473250,0,208.34126488546113,2.0257783940788547,3.8957003081990127,0.50056203595899285,0.44534019560583971,0.34010330625072455,0.22010545475944990,27.904420087554225,0.68089571259265391,88.403785303818452,161.63031447659148,193.43020547015507,242.15166398545230,94.727968468750007,82.406666666666666,4.9850000000000136,1.5288672884493075,4.9375235477023693,0.24178122623687978
20220524110000,426.25061623513318,7.5658150792042846,0.11343450941225809,0,-41.250315540371069,0,-2.3654109948978457,0,4.0322358649895360,0,207.14124481509262,2.3229424949810431,5.1719965746603904,0.65491792642872126,0.53183440418317984,0.41767575652805400,0.30970388791125175,60.398446084245514,0.31457762958832164,98.569104583131278,180.21576018147491,215.67223718983391,269.99604836299181,94.731750648654526,81.760000000000005,5.1139999999999759,1.5993802023318915,5.0609657702976278,0.21918200488464371
20220524113000,425.59278752121230,7.6706815173720306,6.2362517086614395E-002,0,-30.914373362425689,0,-3.5456388842874880,1,2.6671356852430295,0,192.81111398641994,1.7610956425786914,4.3665810851147491,0.59516043737489754,0.63999848590627451,0.42487172795174732,0.22983352930273623,32.942183203145923,0.57676808737392771,76.591282600455145,140.03329213033530,167.58408567815974,209.79538901802135,94.746558501302090,79.980999999999995,5.6306666666666843,1.8195727510612199,5.4719397659301876,0.27284837854784266
20220524120000,425.29020280601230,7.8000806763371946,0.17531718328732865,0,12.804565510706944,0,9.8277810547289377,0,-0.32510756670779911,1,203.22498818360134,1.9382547318628716,5.1444155877739695,0.86165879847965188,0.66110237416173157,0.49728885126948708,0.38596518481914127,-376.72490290143702,-5.0434680196788033E-002,102.23660679883173,186.92112392161394,223.69684501298497,280.04190512297197,94.763764402289041,76.349000000000004,6.5476666666666574,2.2903614916115100,6.3221006337047356,0.11991692410398488
20220524123000,425.39033018510941,7.9122418212694994,0.17375050472912015,0,15.358303718008740,0,14.580715557226831,0,0.72968614444992308,1,207.51063916068409,2.1231350190386098,5.6888199891058848,0.93514807319047677,0.77149652996295437,0.55985570911071358,0.38450153471074366,-310.55551589976267,-6.1180687597680888E-002,92.706988332492685,169.49794204922205,202.84574625447368,253.93880375870467,94.773686955295148,75.338333333333338,6.9506666666666774,2.4553319926962502,6.7664950968424478,0.31252774627434804
20220524130000,423.38644437230784,8.0060086171581073,0.29776765307069086,0,25.899911592814835,1,29.594794775031229,0,1.2525150312899016,1,201.88519188744056,1.8675213682615219,5.1951987757808435,0.91276684957202492,0.84101594019713133,0.64083855333071416,0.50413984437537473,-415.10868448807935,-4.5771145509593936E-002,103.34674748523145,188.95081515756485,226.12586703204326,283.08275245259455,94.775397106336811,71.828333333333333,7.8206666666666820,2.9767673731013167,7.6548099992540983,0.34657555925125283
20220524133000,420.75575542926322,7.9386560487771005,0.41959049535357784,0,101.91684438848750,0,43.683203882797976,0,-3.1502389302117355,1,197.53810138806375,2.2940229660579323,6.5597159923875381,1.1785409171178516,1.0442984127236272,0.75360349521578363,0.59968692375088439,-177.54590206686413,-0.10701457920918142,104.29902289591020,190.69187832095048,228.20947496487926,285.69118233459335,94.766833860460054,65.881000000000000,8.9686666666666497,3.8972291989423185,8.7390178205702114,0.47629645581698188
20220524140000,419.10772829488485,7.8505307812888736,0.42124760014831103,0,134.81039987188012,0,71.589943056897667,0,-3.5464082127894367,1,205.90491595671131,1.7670802780073793,5.5533112339222184,1.0998436887190213,0.93563839180173214,0.70297206539593726,0.60199521727331828,-135.76919513687167,-0.13994337950405994,110.60604889093550,202.22313336262735,242.00944212613450,302.96710365680980,94.754855462022562,60.776000000000003,10.000000000000000,4.8021612653727495,9.7422381812201593,0.39325792546032878
20220524143000,418.28043557485307,7.7775993013925078,0.34203660236508610,0,92.679061404094270,0,48.653946532568860,0,-2.8911488620629036,0,214.77692855337935,1.9048950085960790,5.8874325576331099,1.0709221598237142,0.80907733402267179,0.60112471472574158,0.54288247458822581,-144.84347751297148,-0.13117608280496063,115.41118232602523,211.00844980067799,252.52322210135429,316.12910857526714,94.760644727713057,58.330333333333336,10.475666666666655,5.2664215475991982,10.221226474498735,0.33088797072118836
20220524150000,416.70055335113187,7.8863725344924545,0.51619221989985320,1,168.82406286244944,0,176.51608643537983,1,0.35931077806389522,2,205.51204390724180,1.4353009768676035,5.7105492689620760,1.0470098587250436,1.0490662576643184,0.78914442737244417,0.66826511495435903,-148.29657294582805,-0.12812163910854904,109.61973225338852,200.41983197963413,239.85135094029130,300.26542958055023,94.742060919136534,55.055666666666667,11.551333333333332,6.1011192309579449,11.202970614224569,0.56533125436806786
20220524153000,415.90478796803865,7.3799416065677965,0.37206604068426474,1,166.27993767276496,0,67.774242562057964,0,-3.4200417461249093,0,202.24986710441863,1.4876703005249292,4.8884102131282043,0.80696452920710260,1.2870184607438850,0.69373734147800303,0.56797864786181484,-92.419310098882690,-0.20558474175657909,106.70000752411542,195.08164397608141,233.46290329227870,292.26785120601409,94.717133598524299,49.479666666666667,12.159666666666681,7.1390001906133698,11.691236073811865,0.40772739113520362
20220524160000,415.17680457495413,7.3388649956203249,0.14498357665823633,1,133.21654048865199,0,78.839347855881655,0,-1.2033203142309328,2,202.45973448144022,1.2670992281428712,4.9162861953635959,0.89040924976455105,0.91130563853641555,0.64647940118377800,0.35487261167881218,-28.131743835048255,-0.67539360913448365,77.494188140629376,141.68409142472609,169.55967081352273,212.26858717603542,94.695673171875001,47.747000000000000,12.613666666666688,7.6074770986414615,12.114023620605565,0.47509992016233132
20220524163000,414.66710097976676,7.0110144243284784,0.50896779419861082,1,497.01293333410746,1,236.99752721969631,1,-10.669700235524450,1,167.02310662809967,0.79552915220536480,4.8418790831965115,0.98867254166449015,0.82448033699892642,0.74173430516681838,0.66622332327878042,-49.885324269497296,-0.38087353902633991,114.90847827231957,210.08934646126940,251.42329014635052,314.75212429027641,94.682434836588541,42.358333333333334,13.745333333333349,9.0357545169925135,13.190190397474453,0.80595919703199981
20220524170000,414.73426843093728,6.4693778812458493,0.47266834947010311,1,289.99176480055576,0,244.25337728608474,1,-4.6072531712821672,0,164.67617156678475,1.5309587219022383,6.6459196235034259,1.2353541006467774,1.2172012716338600,0.84246265376509488,0.64240470546347817,-76.641813498684456,-0.24790645122621130,100.80018851176538,184.29489317074098,220.55391755288298,276.10733289626410,94.676027428819452,38.136666666666670,14.122999999999990,9.9382430026860185,13.493021859062992,0.55750073470917816
20220524173000,414.56314809503522,5.6323524771270197,0.35863508731802796,1,296.64180722481206,0,104.92517851985275,0,-4.8220041978847030,0,110.86528594380098,1.9044590147792684,6.9227656479336970,1.2234308516481942,1.2871535553676596,0.72258465489042489,0.55965821138364757,-49.534813908901228,-0.38356861570011408,102.06626354917050,186.60968213304022,223.32412873540491,279.57530857156416,94.677821319661447,32.809666666666665,14.307000000000016,10.923442774535213,13.589624333699589,0.59822092365459056
20220524180000,414.55101407312679,5.8080032231941328,0.26103157119942721,1,260.75782585111801,0,87.649673680991654,0,-3.9052990619889192,0,94.058773966647749,2.5445185705288083,7.3006759637034051,1.0241071141607241,0.78324449979592348,0.66516925715112174,0.47788661395134124,-35.079260853710409,-0.54163056853549207,96.110106250355912,175.71992697186764,210.29187308975770,263.26047096692650,94.654221804036453,32.929333333333332,14.721999999999980,11.200386310084697,14.042217358907067,0.65075147389812271
20220524183000,414.16347233299592,5.8928770259149470,0.44565475455839121,1,340.28683550610913,0,129.36585310360485,0,-4.7892543306180553,0,105.40992844022065,2.3053523739288977,7.8368432179934082,1.2080308419739809,0.95061046175030584,0.77765850158329053,0.62535906845321543,-60.224664138970944,-0.31548536254443366,105.17858457643226,192.29999759475493,230.13398301622973,288.10043804445104,94.625106207465279,31.791666666666668,15.489333333333320,11.966699320059043,14.710668111165376,0.69535025199598355
20220524190000,414.25416301842245,5.8290913666689077,0.48991906864124435,1,275.03187178926254,0,115.13299708843165,0,-4.4808715754591111,0,93.280925860012303,2.4013168487097807,7.3520571029718029,1.2672744068380619,0.99322795282844512,0.71938452188316881,0.65594981771888827,-85.976457144843678,-0.22099072968302114,116.30075145865715,212.63486588865240,254.46962676619469,318.56577624686753,94.601401644965293,31.095666666666666,15.661000000000001,12.222543060459298,14.965611985948385,0.63165305072627853
20220524193000,414.37948683920223,5.5963817793905761,0.22776805393983007,1,236.41723743900843,0,100.01526774306824,0,-3.3333323558450494,0,109.75717963368530,2.2341084787654051,6.5039394639482202,1.0726853571095312,0.72352445972291135,0.65202855257754599,0.44773908028066628,-31.803085477724078,-0.59742630988770640,92.696131662656398,169.47809259420407,202.82199152643872,253.90906565804346,94.580969834201383,28.745333333333335,16.250000000000000,13.124221148958689,15.486515496995708,0.59458888012346833
20220524200000,414.11018311228054,5.7654867549114757,0.11254708124915087,0,299.63541342150597,0,97.849669870186318,0,-3.7596792326374779,0,138.04067287648860,1.2437226373298900,6.9442961501331366,1.3079242235672306,1.2612711890629951,0.68946778107221629,0.31497365428204283,-8.7344415719578521,-2.1752964792849476,66.905697404420351,122.32495333302248,146.39172691061296,183.26507061782743,94.555651833116329,28.968333333333334,16.591999999999985,13.371140327354988,15.826640798780659,0.63308866264809371
20220524203000,413.83330275557904,6.1826242182560067,0.33574689308674249,1,258.32409320640352,0,120.51196204605644,0,-1.6853015136930209,0,115.41959797030307,1.4231605086517287,5.7297042875426198,1.1531612486990774,1.0108050193080724,0.69879857150271429,0.54473180001104071,-52.395152876628408,-0.36262896388026794,102.59341260909072,187.57347874014391,224.47754711701987,281.01925151574181,94.515136441840284,29.908999999999999,17.182666666666648,13.697807514303191,16.499928697374116,0.62689913889277449
20220524210000,413.75303828057724,6.1637843580884857,0.47673021536625360,1,243.15413940840784,0,108.48275455725036,0,-3.9860937636334519,0,128.91733989656950,1.4394282755089836,5.2095514771783771,1.2114558734803027,1.0430593542329736,0.69309964022526338,0.64941054298516276,-94.296656532082096,-0.20149176756373882,118.85948086041746,217.31303929995721,260.06820551736547,325.57453249181077,94.488144711154519,29.443999999999999,17.377666666666642,13.959773755905990,16.694973656548370,0.53152661782131361
20220524213000,413.73781150072148,6.1799602346654519,0.23583013628886057,1,215.15909033335802,0,86.883278544929567,0,-2.4982184656230286,0,113.43821056659317,1.9036084156447748,6.7675759429357072,1.0507996064773995,0.93553675703273309,0.66764102677723669,0.45701024634842624,-37.135093042283010,-0.51164541255803753,92.461564250865408,169.04922855401119,202.30875080373207,253.26654917657447,94.470632812934028,29.016999999999999,17.647666666666680,14.285676948502170,16.951419937133778,0.50356734589285079
20220524220000,413.88073917711841,6.0967799604438744,0.37333570461465893,0,211.52450930771820,0,89.160706001584742,0,-3.3496775817787015,0,102.52718013770195,0.66891549642069870,5.8784405329252438,1.6104078888751250,0.96229964467749396,0.65631472180181971,0.57509738926542120,-75.264264293202800,-0.25244384142230847,112.65703056498737,205.97298198984910,246.49705320821607,308.58506021227277,94.459690315538197,28.509666666666668,17.710666666666668,14.445038385734048,17.070696645101009,0.45625085782218661
20220524223000,413.85743451084613,6.1998384393931740,0.25724833215237697,1,135.93510620208946,0,81.368083498522438,0,-1.4573650053115024,0,108.84893007072108,1.8453885853587713,6.6444068736266635,1.1600659429158104,0.90486419899621184,0.61217000401822763,0.47766982165458699,-67.101846943432889,-0.28315166967039035,102.67376948754271,187.72039674246608,224.65337044241812,281.23936145518564,94.443597587441303,28.466999999999999,17.997999999999990,14.717502273817431,17.350890777174129,0.39833488221759455